Regional Weather Roundup
Issued by NWS Northern Indiana

Home | Current Version | Previous Version | Text Only | Print | Product List | Glossary On
Versions: 1 2 3 4 5 6 7 8 9 10 11 12 13 14 15 16 17 18 19 20 21 22 23 24 25 26 27 28 29 30 31 32 33 34 35 36 37 38 39 40 41 42 43 44 45 46 47 48 49 50
252
ASUS43 KIWX 161810
RWRIWX

KIWX WEATHER ROUNDUP
NATIONAL WEATHER SERVICE NORTHERN INDIANA
200 PM EDT WED AUG 16 2017

NOTE: "FAIR" INDICATES FEW OR NO CLOUDS BELOW 12,000 FEET WITH NO
SIGNIFICANT WEATHER AND/OR OBSTRUCTIONS TO VISIBILITY.

* THESE STATIONS ARE NOT UNDER NWS QUALITY CONTROL. THEY ALSO MAY NOT
  REPORT WEATHER SUCH AS PRECIPITATION OR FOG.

INZ001>027-161900-
NORTHERN INDIANA

CITY           SKY/WX    TMP DP  RH WIND       PRES   REMARKS
VALPARAISO     MOSUNNY   87  69  54 S9        29.99F
MICHIGAN CITY* PTSUNNY   86  70  58 S10G18    29.99F
LAPORTE*       MOSUNNY   85  69  59 S7        30.00F
6HR MIN TEMP:  64; 6HR MAX TEMP:  86;

KNOX*          MOSUNNY   82  68  61 SE7       29.99F
SOUTH BEND     SUNNY     86  70  58 S8        30.00F
6HR MIN TEMP:  65; 6HR MAX TEMP:  86; 6HR PCP: TRACE;

ELKHART*       MOSUNNY   86  66  51 S6        30.01F
GOSHEN         PTSUNNY   85  66  53 SE7       30.01F
6HR MIN TEMP:  65; 6HR MAX TEMP:  85;

MONTICELLO*    PTSUNNY   84  68  58 SE8       29.99F
6HR MIN TEMP:  67; 6HR MAX TEMP:  87;

LOGANSPORT*    PTSUNNY   86  68  54 S7        30.01F
ROCHESTER*     MOSUNNY   90  66  45 S8        30.01F
WARSAW*        PTSUNNY   84  68  58 CALM      30.02S
AUBURN*        MOSUNNY   86  63  45 W3        30.04S
FORT WAYNE     PTSUNNY   87  65  47 CALM      30.02F
6HR MIN TEMP:  67; 6HR MAX TEMP:  87;

HUNTINGTON*    MOSUNNY   86  68  53 S5        30.02S
6HR MIN TEMP:  64; 6HR MAX TEMP:  86;

PERU/GRISSOM   MOSUNNY   87  69  55 S9        30.00F
6HR MIN TEMP:  68; 6HR MAX TEMP:  87;

MARION*        SUNNY     84  64  51 CALM      30.02F

$$
INZ028>050-161900-
CENTRAL INDIANA

CITY           SKY/WX    TMP DP  RH WIND       PRES   REMARKS
LAFAYETTE      MOSUNNY   85  71  63 S8        29.98F
6HR MIN TEMP:  68; 6HR MAX TEMP:  86;

KOKOMO*        MOSUNNY   85  71  63 S6        30.02F
6HR MIN TEMP:  72; 6HR MAX TEMP:  85;

MUNCIE*        MOSUNNY   88  65  46 S5        30.02F
6HR MIN TEMP:  70; 6HR MAX TEMP:  89;

INDIANAPOLIS   CLOUDY    88  69  53 S7G16     30.00F
6HR MIN TEMP:  71; 6HR MAX TEMP:  88;


$$
MIZ043>046-050>051-056>058-064>065-071>073-077>080-161900-
SOUTHWEST LOWER MICHIGAN

CITY           SKY/WX    TMP DP  RH WIND       PRES   REMARKS
BATTLE CREEK   MOSUNNY   84  64  50 SW6       30.03F
6HR MIN TEMP:  67; 6HR MAX TEMP:  85;

BENTON HARBOR  PTSUNNY   89  65  44 E9        29.99F
6HR MIN TEMP:  62; 6HR MAX TEMP:  89;

COLDWATER*     MOSUNNY   84  61  45 SE6       30.03F
6HR MIN TEMP:  66; 6HR MAX TEMP:  84;

HILLSDALE*     PTSUNNY   82  61  47 S7        30.05S
HOLLAND        PTSUNNY   85  65  51 S7        30.01F
6HR MIN TEMP:  63; 6HR MAX TEMP:  85;

GRAND RAPIDS   PTSUNNY   82  61  48 VRB5      30.01F
6HR MIN TEMP:  64; 6HR MAX TEMP:  85;

KALAMAZOO      MOSUNNY   84  62  47 VRB5      30.02F
6HR MIN TEMP:  64; 6HR MAX TEMP:  86;

STURGIS*       MOSUNNY   82  66  59 SE3       30.02S
6HR MIN TEMP:  67; 6HR MAX TEMP:  84;

THREE RIVERS*  FAIR      87  63  44 S6        30.02F
6HR MIN TEMP:  65; 6HR MAX TEMP:  87;


$$
OHZ001>008-015>018-024>025-161900-
NORTHWEST OHIO

CITY           SKY/WX    TMP DP  RH WIND       PRES   REMARKS
WAUSEON*       FAIR      86  68  54 SE7       30.04F
DEFIANCE       PTSUNNY   85  63  47 S6        30.03F
6HR MIN TEMP:  65; 6HR MAX TEMP:  85;

FINDLAY        PTSUNNY   86  64  47 S3        30.03F
6HR MIN TEMP:  68; 6HR MAX TEMP:  87;

TOLEDO EXPRESS SUNNY     84  65  52 E8        30.04F
6HR MIN TEMP:  67; 6HR MAX TEMP:  84;

TOLEDO METCALF SUNNY     83  64  52 E8        30.05F
6HR MIN TEMP:  67; 6HR MAX TEMP:  83;

LIMA           PTSUNNY   84  70  62 NE7       30.04S
6HR MIN TEMP:  69; 6HR MAX TEMP:  85;


$$
AND FOR LAKE MICHIGAN COASTAL AND OPEN LAKE BUOY OBSERVATIONS

STATION/POSITION TEMP    WIND        PRES    VSBY  WAVE
                 AIR SEA DIR/SP/G                  HT/PER
                 (F)     (DEG/KT/KT) (MB)    (MI)  (FT/S)
CALUMET HARBOR    77      50/  6/  9 1014.4F
MICHIGAN CITY     81     360/  5/  6   N/A
BURNS HARBOR      78      70/  4/  7 1015.2F
SAINT JOSEPH      77      10/  5/  7 1016.3
SOUTH LAKE BUOY   72 72   70/  6/  8 1015.7F         1
4 MI NW BRIDGMAN  77 76   50/  6/  6 1015.0          1/ 3
MICHIGAN CITY     76 75   50/  6/  8   N/A           1/ 4

$$
&&




USA.gov is the U.S. government's official web portal to all federal, state and local government web resources and services.